Clarksburg, WV

8:43 AM EST on November 18, 2019 (GMT -0500)
Benedum

Weather History for KCKB - September, 2019

Change the Weather History Date:

Sunday, September 8, 2019

  Actual Average Record
Temperature  
Mean Temperature 67 °F -  
Max Temperature 81 °F 80 °F 95 °F (1959)
Min Temperature 55 °F 55 °F 39 °F (1932)
Cooling Degree Days 2    
Growing Degree Days 17 (Base 50)    
Moisture  
Dew Point 55 °F    
Average Humidity 78    
Maximum Humidity 94    
Minimum Humidity 39    
Precipitation  
Precipitation 0.00 in - - ()
Sea Level Pressure  
Sea Level Pressure 30.06 in    
Wind  
Wind Speed 1 mph (North)    
Max Wind Speed 6 mph    
Max Gust Speed -    
Visibility 5 miles    
Events Fog    
Averages and records for this station are not official NWS values.
T = Trace of Precipitation, MM = Missing Value Source: NWS Daily Summary

Daily Weather History Graph

Daily Weather History Graph

Search for Another Location

Airport or City:

Astronomy

Sep. 08, 2019 Rise Set
Actual Time 6:55 AM EDT 7:41 PM EDT
Civil Twilight 6:28 AM EDT 8:08 PM EDT
Nautical Twilight 5:56 AM EDT 8:40 PM EDT
Astronomical Twilight 5:23 AM EDT 9:13 PM EDT
Moon 4:46 PM EDT (9/8) 1:35 AM EDT (9/8)
Length of Visible Light 13h 39m
Length of Day
12h 45m
Waxing Gibbous, 75% of the Moon is Illuminated
Sep 8
Waxing Gibbous
Sep 14
Full
Sep 21
Last Quarter
Sep 28
New
Oct 5
First Quarter

Hourly Weather History & Observations

Time (EDT) Temp. Dew Point Humidity Pressure Visibility Wind Dir Wind Speed Gust Speed Precip Events Conditions
12:53 AM 62.1 °F 57.9 °F 86% 30.02 in 9.0 mi Calm Calm - N/A   Scattered Clouds
1:53 AM 61.0 °F 57.0 °F 87% 30.02 in 9.0 mi Calm Calm - N/A   Partly Cloudy
2:53 AM 57.9 °F 55.0 °F 90% 30.01 in 2.0 mi Calm Calm - N/A   Clear
3:14 AM 59.0 °F 55.9 °F 90% 30.04 in 6.0 mi Calm Calm - N/A   Clear
3:40 AM 57.9 °F 55.0 °F 90% 30.04 in 3.0 mi Calm Calm - N/A   Clear
3:53 AM 57.9 °F 55.0 °F 90% 30.00 in 1.5 mi Calm Calm - N/A   Clear
4:02 AM 57.9 °F 55.0 °F 90% 30.03 in 0.5 mi Calm Calm - N/A Fog Fog
4:16 AM 57.0 °F 54.0 °F 89% 30.03 in 0.2 mi Calm Calm - N/A Fog Fog
4:39 AM 57.9 °F 55.0 °F 90% 30.04 in 1.5 mi Calm Calm - N/A   Partly Cloudy
4:41 AM 57.9 °F 55.0 °F 90% 30.04 in 3.0 mi Calm Calm - N/A   Clear
4:53 AM 57.9 °F 55.0 °F 90% 30.01 in 1.5 mi Calm Calm - N/A   Partly Cloudy
4:55 AM 57.9 °F 55.0 °F 90% 30.04 in 0.8 mi Calm Calm - N/A   Mist
5:23 AM 55.9 °F 54.0 °F 93% 30.04 in 0.5 mi Calm Calm - N/A Fog Fog
5:53 AM 55.9 °F 53.1 °F 90% 30.01 in 0.5 mi Calm Calm - N/A Fog Fog
5:58 AM 57.0 °F 53.1 °F 87% 30.05 in 2.5 mi Calm Calm - N/A   Partly Cloudy
6:03 AM 55.9 °F 53.1 °F 90% 30.05 in 0.8 mi Calm Calm - N/A   Partly Cloudy
6:18 AM 55.9 °F 53.1 °F 90% 30.06 in 0.2 mi Calm Calm - N/A Fog Fog
6:38 AM 57.0 °F 54.0 °F 89% 30.07 in 2.0 mi Calm Calm - N/A   Partly Cloudy
6:45 AM 55.9 °F 53.1 °F 90% 30.07 in 4.0 mi Calm Calm - N/A   Partly Cloudy
6:50 AM 55.4 °F 53.6 °F 94% 30.08 in 1.5 mi Calm Calm - N/A   Partly Cloudy
6:53 AM 55.0 °F 53.1 °F 93% 30.05 in 0.5 mi Calm Calm - N/A Fog Fog
7:23 AM 55.0 °F 52.0 °F 89% 30.10 in 1.2 mi NNE 4.6 mph - N/A   Scattered Clouds
7:31 AM 55.0 °F 52.0 °F 89% 30.10 in 2.0 mi NE 3.5 mph - N/A   Partly Cloudy
7:38 AM 55.9 °F 53.1 °F 90% 30.10 in 1.8 mi Calm Calm - N/A   Clear
7:53 AM 57.9 °F 55.0 °F 90% 30.08 in 4.0 mi Calm Calm - N/A   Clear
8:53 AM 62.1 °F 57.0 °F 84% 30.08 in 10.0 mi SSE 3.5 mph - N/A   Clear
9:53 AM 66.9 °F 59.0 °F 76% 30.08 in 10.0 mi Calm Calm - N/A   Clear
10:53 AM 73.0 °F 60.1 °F 64% 30.08 in 10.0 mi Calm Calm - N/A   Clear
11:53 AM 72.0 °F 60.1 °F 66% 30.09 in 10.0 mi Variable 3.5 mph - N/A   Mostly Cloudy
12:53 PM 72.0 °F 57.9 °F 61% 30.08 in 10.0 mi NNE 3.5 mph - N/A   Clear
1:53 PM 75.9 °F 57.9 °F 54% 30.08 in 10.0 mi NNW 3.5 mph - N/A   Clear
2:53 PM 77.0 °F 54.0 °F 45% 30.06 in 10.0 mi Calm Calm - N/A   Clear
3:53 PM 79.0 °F 52.0 °F 39% 30.06 in 10.0 mi WSW 3.5 mph - N/A   Partly Cloudy
4:53 PM 78.1 °F 53.1 °F 42% 30.06 in 10.0 mi North 5.8 mph - N/A   Scattered Clouds
5:53 PM 79.0 °F 52.0 °F 39% 30.07 in 10.0 mi NNW 4.6 mph - N/A   Scattered Clouds
6:53 PM 75.0 °F 54.0 °F 48% 30.08 in 10.0 mi North 3.5 mph - N/A   Clear
7:53 PM 71.1 °F 55.9 °F 59% 30.08 in 10.0 mi North 4.6 mph - N/A   Clear
8:53 PM 69.1 °F 57.0 °F 65% 30.09 in 10.0 mi Calm Calm - N/A   Clear
9:53 PM 68.0 °F 57.0 °F 68% 30.11 in 10.0 mi Calm Calm - N/A   Scattered Clouds
11:53 PM 66.0 °F 57.0 °F 73% 30.12 in 10.0 mi Calm Calm - N/A   Mostly Cloudy